Location: Seasalter
(51.3333°N, 1.0167°E)
Time: 20:09:50
(UTC+00:00)

RESURS DK-1 - Visible Passes

Search period start: 22 April 2024 00:00
Search period end: 02 May 2024 00:00
Orbit: 545 x 546 km, 69.9° (Epoch: 21 April)

Date Brightness Start Highest point End Pass type
(mag) Time Alt. Az. Time Alt. Az. Time Alt. Az.
22 Apr 4.4 00:19:33 19° E 00:19:33 19° E 00:21:24 10° ENE visible
22 Apr 2.8 01:55:09 45° WNW 01:55:41 48° NW 01:59:39 10° NNE visible
22 Apr 4.8 03:32:53 10° NW 03:34:26 12° NNW 03:36:00 10° N visible
23 Apr 4.2 00:13:30 22° ENE 00:13:30 22° ENE 00:15:33 10° NE visible
23 Apr 3.1 01:49:06 38° WNW 01:49:42 41° NW 01:53:36 10° NNE visible
23 Apr 4.9 03:27:31 10° NW 03:28:33 11° NNW 03:29:36 10° NNW visible
24 Apr 4.0 00:07:25 25° ENE 00:07:25 25° ENE 00:09:38 10° NE visible
24 Apr 3.3 01:43:00 33° WNW 01:43:43 36° NW 01:47:31 10° NNE visible
25 Apr 3.8 00:01:16 28° ENE 00:01:16 28° ENE 00:03:41 10° NE visible
25 Apr 3.6 01:36:51 28° WNW 01:37:44 31° NW 01:41:25 10° NNE visible
25 Apr 3.6 23:55:04 33° ENE 23:55:04 33° ENE 23:57:42 10° NE visible
26 Apr 3.8 01:30:40 24° WNW 01:31:44 28° NW 01:35:16 10° NNE visible
26 Apr 3.3 23:48:50 38° ENE 23:48:50 38° ENE 23:51:41 10° NE visible
27 Apr 4.1 01:24:25 21° WNW 01:25:44 25° NW 01:29:07 10° NNE visible
27 Apr 3.0 23:42:32 46° ENE 23:42:32 46° ENE 23:45:38 10° NE visible
28 Apr 4.3 01:18:07 18° WNW 01:19:42 22° NW 01:22:56 10° N visible
28 Apr 2.7 23:36:10 57° ENE 23:36:10 57° ENE 23:39:32 10° NE visible
29 Apr 4.5 01:11:45 15° WNW 01:13:40 20° NW 01:16:44 10° N visible
29 Apr 2.4 23:29:45 72° NE 23:29:45 72° NE 23:33:26 10° NNE visible
30 Apr 4.7 01:05:19 12° WNW 01:07:39 18° NW 01:10:29 10° N visible
30 Apr 4.7 21:47:41 11° ENE 21:47:41 11° ENE 21:48:01 10° ENE visible
30 Apr 2.3 23:23:15 81° NW 23:23:15 81° NW 23:27:18 10° NNE visible
01 May 4.9 00:59:02 10° WNW 01:01:37 16° NW 01:04:13 10° N visible
01 May 4.4 21:41:05 14° E 21:41:05 14° E 21:42:16 10° ENE visible
01 May 2.4 23:16:39 63° W 23:17:03 69° NW 23:21:08 10° NNE visible
